#timestamp,LO_Frequency,Hit,StdDev 
1635548415.4,286047000.9,N
1635548435.2,286046998.9,N
1635548455.0,286046999.2,N
1635548455.9,286046999.2,N
1635548475.8,286046995.4,Y
1635548495.6,286046999.4,P
1635548515.5,286046997.1,P
1635548535.3,286046999.4,N
1635548555.1,286046998.7,N
1635548575.9,286046999.3,N
1635548595.7,286046997.4,Y
1635548615.5,286046997.2,P
1635548635.4,286046997.9,N
1635548655.2,286046998.0,N
1635548675.1,286046999.4,N
1635548676.0,286046999.4,N
1635548695.8,286046999.3,N
1635548715.6,286047000.6,N
1635548735.5,286047002.4,N
1635548755.3,286047001.0,N
1635548775.2,286047002.8,N
1635548795.9,286047002.1,N
1635548815.7,286047001.9,N
1635548835.6,286047001.7,N
1635548855.4,286047001.5,N
1635548875.2,286047001.3,N
1635548895.1,286047001.7,N
1635548896.0,286047001.7,N
1635548915.8,286047003.5,N
1635548935.7,286047002.5,N
1635548955.5,286047003.8,N
1635548975.3,286047005.9,Y
1635548995.2,286047006.0,P
1635549015.0,286047003.1,N
1635549015.9,286047003.1,N
1635549035.7,286047003.3,N
1635549055.6,286047003.3,N
1635549075.4,286047001.7,N
1635549095.3,286047001.9,N
1635549115.1,286047004.0,N
1635549116.0,286047004.0,N
1635549135.8,286047003.8,N
1635549155.7,286047003.7,N
1635549175.5,286047003.1,N
1635549195.3,286047004.0,Y
1635549215.2,286046999.9,P
1635549235.0,286047000.5,N
1635549235.9,286047000.5,N
1635549255.8,286046998.7,N
1635549275.6,286046999.5,N
1635549295.4,286046999.1,N
1635549315.3,286046996.7,N
1635549335.1,286046997.0,N
1635549355.8,286046995.3,N
1635549375.7,286046998.0,N
1635549425.6,286046995.8,E
1635549435.5,286046997.3,N
1635549455.3,286046998.6,P
1635549475.1,286047001.3,N
1635549495.9,286047002.5,N
1635549515.7,286047005.5,N
1635549535.6,286047004.1,N
1635549555.4,286047002.4,N
1635549575.2,286047002.7,N
1635549595.1,286046999.8,N
1635549596.0,286046999.8,N
1635549615.8,286047000.2,N
1635549635.6,286047002.8,N
1635549655.5,286047000.6,N
1635549675.3,286047000.2,N
1635549695.2,286047004.1,N
1635549715.9,286047002.4,N
1635549735.7,286047001.7,N
1635549755.6,286047002.8,N
1635549775.4,286047002.0,N
1635549795.2,286047002.7,N
1635549815.1,286047002.3,N
1635549816.0,286047002.3,N
1635549835.8,286047000.7,N
1635549855.7,286047001.0,N
1635549875.5,286046998.3,N
1635549895.3,286046999.0,N
1635549915.2,286047000.8,N
1635549935.0,286047000.3,N
1635549935.9,286047000.3,N
1635549955.8,286046999.7,N
1635549975.6,286047001.9,N
1635549995.4,286047003.2,N
1635550015.3,286047001.6,N
1635550035.1,286047000.6,N
1635550055.8,286047001.8,N
1635550075.7,286047003.2,N
1635550095.5,286047003.0,N
1635550115.4,286047005.8,Y
1635550135.2,286047003.9,P
1635550155.0,286047001.3,N
1635550155.9,286047001.3,N
1635550175.8,286047003.9,Y
1635550195.6,286047002.7,P
1635550215.5,286047001.9,P
1635550235.3,286047004.0,P
1635550255.1,286047004.2,Y
1635550275.9,286047003.5,P
1635550295.7,286047004.7,P
1635550315.5,286047003.2,P
1635550335.4,286047000.3,N
1635550355.2,286047004.3,N
1635550375.1,286047004.3,N
1635550376.0,286047004.3,Y
1635550395.8,286047000.4,P
1635550415.6,286047002.6,N
1635550435.5,286047003.8,P
1635550455.3,286047003.8,N
1635550475.1,286047004.0,Y
1635550495.9,286047001.8,P
1635550515.7,286047004.4,P
1635550535.6,286047001.7,N
1635550555.4,286047003.1,N
1635550575.2,286047005.2,Y
1635550595.1,286047001.8,P
1635550596.0,286047001.8,P
1635550615.8,286047003.4,P
1635550635.7,286047006.0,Y
1635550655.5,286047002.1,P
1635550675.3,286047003.9,P
1635550695.2,286047001.8,N
1635550715.0,286047004.1,Y
1635550715.9,286047004.1,P
1635550735.8,286047000.4,N
1635550755.6,286047000.2,N
1635550775.4,286046999.7,N
1635550795.3,286047001.2,N
1635550815.1,286046998.8,N
1635550835.8,286046998.8,N
1635550855.7,286046997.4,N
1635550875.5,286046999.5,N
1635550895.4,286046998.8,N
1635550915.2,286046999.0,N
1635550935.0,286046999.6,N
1635550935.9,286046999.6,N
1635550955.8,286046998.9,N
1635550975.6,286047001.0,N
1635550995.5,286046998.3,N
1635551015.3,286046998.3,N
1635551035.1,286047000.2,N
1635551055.9,286047001.1,N
1635551075.7,286046999.1,N
1635551095.5,286047000.7,N
1635551115.4,286046999.7,N
1635551135.2,286047004.3,N
1635551155.1,286047000.3,N
1635551156.0,286047000.3,N
1635551175.8,286046998.5,N
1635551195.6,286047002.4,N
1635551215.5,286047002.3,N
1635551235.3,286047004.0,N
1635551255.1,286047004.0,N
1635551275.9,286047005.4,N
1635551295.7,286047005.9,Y
1635551315.6,286047004.1,P
1635551335.4,286047003.5,N
1635551355.2,286047003.4,N
1635551375.1,286047002.9,N
1635551376.0,286047002.9,N
1635551395.8,286047005.1,Y
1635551415.7,286047004.0,P
1635551435.5,286047002.5,P
1635551455.3,286047000.8,N
1635551475.2,286046998.1,N
1635551495.0,286047000.6,N
1635551495.9,286047000.6,N
1635551515.7,286046998.4,N
1635551535.6,286046998.8,N
1635551555.4,286046995.1,N
1635551575.3,286046993.6,N
1635551595.1,286046995.6,N
1635551615.8,286046996.2,N
1635551635.7,286046993.8,N
1635551655.5,286046995.7,N
1635551675.4,286046996.1,N
1635551695.2,286046996.6,N
1635551715.0,286046996.7,N
1635551715.9,286046996.7,N
1635551735.8,286046997.1,N
1635551755.6,286046995.7,N
1635551775.4,286046996.4,N
1635551795.3,286046996.0,N
1635551815.1,286046993.3,N
1635551835.9,286046993.5,N
1635551855.7,286046991.9,N
1635551875.5,286046993.2,N
1635551895.4,286046991.7,N
1635551915.2,286046994.1,N
1635551935.0,286046993.8,N
1635551935.9,286046993.8,N
1635551955.8,286046995.6,N
1635551975.6,286046996.8,N
1635551995.5,286046996.9,N
